Back to catalog

STARLINK-1500

AliveCommunicationsVLEO
NORAD 45744·PAYLOAD·🇺🇸 United States

Launched Jun 13, 2020 from Cape Canaveral Space Force Station

Loading…

Next Passes (next 24 hours)

TLE

FreshSource: CelesTrak SupGP

Epoch: Sep 14, 2026, 22:02 UTC

1 45744C 20038Q   26257.91854167 -.00000053  00000+0 -11556-5 0  2579
2 45744  53.0348  18.8034 0002197 119.8910 198.2058 15.43852324    12

Track STARLINK-1500 in real time with AllMySat

Download on the App Store